TOURFACTS.DK  
Stats and Facts from Tour de France.

Tour de France 2018 starts in 257 days
  Riders   Stages   Teams   Summits   Yearly  


 
Search by year

 2017 - St. 21:  14824 starters.
  5131 different riders.
  634 teams.
  2232 stages.
  454 restdays.
  439589.60 km.
  5653 abandonnees.


Top 3
Christopher Froome86:20:55
Rigoberto Uran86:21:49
Romain Bardet86:23:15
Warren Barguil169 pt.
Primoz Roglic80 pt.
Thomas De Gendt64 pt.
Michael Matthews359 pt.
André Greipel234 pt.
Edvald Boasson Hagen220 pt.
Simon Yates86:27:09
Louis Meintjes86:29:15
Emanuel Buchmann86:54:16
Facts from Tour de France 2013
  |   Stages.  |   Stage winners.  |   Days in yellow  |   Average speed.  |   Route.  |   Teams.  |   All riders.  |   Rookies.  |   Withdrawls.  |  

  |   GC.  |   Polka  |   Green  |   White  |   Summits. (In tour)  |   Summits. (Points)  |   Miscellaneous.  |  

Stage 8 on 06 - 07 - 2013
         Owning:    Christopher Froome    
Pick a stage:  1 2 3 4 5 6 7 8 9 10 11 12 13 14 15 16 17 18 19 20 21
  CastresAx-3-Domaines | Dist: 194.00 km.
Cat: 4Côte de Saint FerréolFRARudy Molard
1 point
 
Cat: HCol de PailhèresCOLNairo Quintana
25 points
 
Cat: 1Ax 3 DomainesKENChristopher Froome
20 points
 

Average speed for all riders in stage:  35,933 km./hr.
    Place:Name:Team:Time:Km/h:
KENChristopher FroomeGBRSky Procycling05:03:18  +  00:00:00=38,378 
AUSRichie PorteGBRSky Procycling05:04:09  +  00:00:51=38,271 
ESPAlejandro ValverdeESPMovistar Team05:04:26  +  00:01:08=38,235 
4 NEDBauke MollemaNLDBelkin Pro Cycling05:04:28  +  00:01:10=38,231 
5 NEDLaurens ten DamNLDBelkin Pro Cycling05:04:34  +  00:01:16=38,218 
6 ESPMikel NieveESPEuskaltel - Euskadi05:04:52  +  00:01:34=38,181 
7 CZERoman KreuzigerDNKTeam Saxo-Tinkoff05:05:03  +  00:01:45=38,158 
8 ESPAlberto ContadorDNKTeam Saxo-Tinkoff05:05:03  +  00:01:45=38,158 
9 COLNairo QuintanaESPMovistar Team05:05:03  +  00:01:45=38,158 
10 ESPIgor AntonESPEuskaltel - Euskadi05:05:03  +  00:01:45=38,158 
11 ESPJoaquim RodriguezRUSTeam Katusha05:05:24  +  00:02:06=38,114 
12 PORRui CostaESPMovistar Team05:05:46  +  00:02:28=38,068 
13 FRAJean-Christophe PeraudFRAAg2r La Mondiale05:05:46  +  00:02:28=38,068 
14 FRARomain BardetFRAAg2r La Mondiale05:05:52  +  00:02:34=38,056 
15 ENGDaniel MartinUSAGarmin Sharp05:05:52  +  00:02:34=38,056 
16 USAAndrew TalanskyUSAGarmin Sharp05:05:52  +  00:02:34=38,056 
17 SUIJakob FuglsangKAZAstana Pro Team05:05:52  +  00:02:34=38,056 
18 AUSMichael RogersDNKTeam Saxo-Tinkoff05:05:52  +  00:02:34=38,056 
19 ESPHaimar ZubeldiaLUXRadioShack Leopard05:06:22  +  00:03:04=37,994 
20 POLMichal KwiatkowskiBELOmega Pharma – Quick Step05:06:45  +  00:03:27=37,946 
21 LUXAndy SchleckLUXRadioShack Leopard05:06:52  +  00:03:34=37,932 
22 FRAPierre RollandFRATeam Europcar05:07:05  +  00:03:47=37,905 
23 FRANicolas RocheDNKTeam Saxo-Tinkoff05:07:22  +  00:04:04=37,870 
24 FRAJohn GadretFRAAg2r La Mondiale05:07:26  +  00:04:08=37,862 
25 ESPDaniel MorenoRUSTeam Katusha05:07:29  +  00:04:11=37,856 
26 AUSCadel EvansUSABMC Racing Team05:07:31  +  00:04:13=37,852 
27 COLJosé SerpaITALampre-Merida05:08:12  +  00:04:54=37,768 
28 GERAndréas KlödenLUXRadioShack Leopard05:08:18  +  00:05:00=37,755 
29 ESPJesus  HernandezDNKTeam Saxo-Tinkoff05:08:18  +  00:05:00=37,755 
30 FRAThibaut PinotFRAFDJ.fr05:09:18  +  00:06:00=37,633 
31 SVKPeter VelitsBELOmega Pharma – Quick Step05:09:48  +  00:06:30=37,573 
32 ITADavide MalacarneFRATeam Europcar05:09:48  +  00:06:30=37,573 
33 FRAHubert DupontFRAAg2r La Mondiale05:09:48  +  00:06:30=37,573 
34 BELMaxime MonfortLUXRadioShack Leopard05:10:47  +  00:07:29=37,454 
35 RSADaryl ImpeyAUSOrica - GreenEDGE05:11:08  +  00:07:50=37,412 
36 FRASylvain ChavanelBELOmega Pharma – Quick Step05:11:08  +  00:07:50=37,412 
37 NEDRobert GesinkNLDBelkin Pro Cycling05:11:08  +  00:07:50=37,412 
38 BELJan BakelantsLUXRadioShack Leopard05:11:08  +  00:07:50=37,412 
39 CANRyder HesjedalUSAGarmin Sharp05:11:33  +  00:08:15=37,362 
40 RUSEduard VorganovRUSTeam Katusha05:11:33  +  00:08:15=37,362 
41 CRCAndrey AmadorESPMovistar Team05:11:50  +  00:08:32=37,328 
42 FRAMaxime MederelFRASojasun05:11:50  +  00:08:32=37,328 
43 FRAArnold JeannessonFRAFDJ.fr05:11:50  +  00:08:32=37,328 
44 ESPMikel AstarlozaESPEuskaltel - Euskadi05:11:50  +  00:08:32=37,328 
45 POLPrzemyslaw NiemiecITALampre-Merida05:12:15  +  00:08:57=37,278 
46 ESPDaniel NavarroFRACofidis – Solutions Crédits05:12:31  +  00:09:13=37,246 
47 ESPRubén PlazaESPMovistar Team05:12:31  +  00:09:13=37,246 
48 NEDWout PoelsNLDVacansoleil - DCM05:12:33  +  00:09:15=37,242 
49 URSRein TaaramäeFRACofidis – Solutions Crédits05:12:38  +  00:09:20=37,232 
50 FRAAlexandre GeniezFRAFDJ.fr05:12:49  +  00:09:31=37,210 
51 ESPLuis Angel MateFRACofidis – Solutions Crédits05:13:12  +  00:09:54=37,165 
52 LUXLaurent DidierLUXRadioShack Leopard05:14:23  +  00:11:05=37,025 
53 IOMPeter KennaughGBRSky Procycling05:14:27  +  00:11:09=37,017 
54 FRAAlexis VuillermozFRASojasun05:15:30  +  00:12:12=36,894 
55 SUISteve MorabitoUSABMC Racing Team05:15:30  +  00:12:12=36,894 
56 USATejay Van GarderenUSABMC Racing Team05:15:33  +  00:12:15=36,888 
57 FRAChristophe RiblonFRAAg2r La Mondiale05:17:37  +  00:14:19=36,648 
58 FRAAmaël MoinardUSABMC Racing Team05:17:45  +  00:14:27=36,633 
59 ITADamiano CunegoITALampre-Merida05:17:45  +  00:14:27=36,633 
60 BLRVasil KiryienkaGBRSky Procycling05:18:53  +  00:15:35=36,502 
61 NEDBram TankinkNLDBelkin Pro Cycling05:21:05  +  00:17:47=36,252 
62 USATom DanielsonUSAGarmin Sharp05:21:05  +  00:17:47=36,252 
63 FRATony GallopinLUXRadioShack Leopard05:21:05  +  00:17:47=36,252 
64 UZBSergey LagutinNLDVacansoleil - DCM05:21:05  +  00:17:47=36,252 
65 NEDJohnny HoogerlandNLDVacansoleil - DCM05:21:05  +  00:17:47=36,252 
66 BELThomas De GendtNLDVacansoleil - DCM05:21:05  +  00:17:47=36,252 
67 FRAJérôme CoppelFRACofidis – Solutions Crédits05:21:05  +  00:17:47=36,252 
68 USABrent BookwalterUSABMC Racing Team05:21:05  +  00:17:47=36,252 
69 FRAJulien El FarèsFRASojasun05:21:05  +  00:17:47=36,252 
70 FRAArthur VichotFRAFDJ.fr05:21:55  +  00:18:37=36,158 
71 BELBart De ClercqBELLotto-Belisol Team05:21:55  +  00:18:37=36,158 
72 NEDTom DumoulinNLDArgos–Shimano05:21:55  +  00:18:37=36,158 
73 GERSimon GeschkeNLDArgos–Shimano05:21:55  +  00:18:37=36,158 
74 FRACyril GautierFRATeam Europcar05:23:41  +  00:20:23=35,961 
75 FRAThomas VoecklerFRATeam Europcar05:23:56  +  00:20:38=35,933 
76 ESPJonathan CastroviejoESPMovistar Team05:24:04  +  00:20:46=35,919 
77 ITAManuele MoriITALampre-Merida05:25:34  +  00:22:16=35,753 
78 ESPAlberto LosadaRUSTeam Katusha05:25:34  +  00:22:16=35,753 
79 RUSYury TrofimovRUSTeam Katusha05:25:34  +  00:22:16=35,753 
80 ESPJosé Joaquin RojasESPMovistar Team05:26:30  +  00:23:12=35,651 
81 ESPDavid LopezGBRSky Procycling05:26:30  +  00:23:12=35,651 
82 GERJens VoigtLUXRadioShack Leopard05:26:30  +  00:23:12=35,651 
83 GERMarcus BurghardtUSABMC Racing Team05:26:30  +  00:23:12=35,651 
84 ESPMarkel IrizarLUXRadioShack Leopard05:26:30  +  00:23:12=35,651 
85 MLTDavid MillarUSAGarmin Sharp05:26:30  +  00:23:12=35,651 
86 FRAGuillaume LevarletFRACofidis – Solutions Crédits05:26:30  +  00:23:12=35,651 
87 URSGatis SmukulisRUSTeam Katusha05:26:30  +  00:23:12=35,651 
88 NORLars Petter NordhaugNLDBelkin Pro Cycling05:26:30  +  00:23:12=35,651 
89 GERTony MartinBELOmega Pharma – Quick Step05:26:30  +  00:23:12=35,651 
90 FRAChristophe Le MevelFRACofidis – Solutions Crédits05:26:30  +  00:23:12=35,651 
91 ITAFrancesco GavazziKAZAstana Pro Team05:26:30  +  00:23:12=35,651 
92 BLRKanstantin SivtsovGBRSky Procycling05:27:42  +  00:24:24=35,520 
93 PORSergio PaulinhoDNKTeam Saxo-Tinkoff05:28:57  +  00:25:39=35,385 
94 ESPJosé Ivan GutierrezESPMovistar Team05:32:20  +  00:29:02=35,025 
95 ESPJuan José OrozESPEuskaltel - Euskadi05:32:20  +  00:29:02=35,025 
96 BLRAliaksandr KuchynskiRUSTeam Katusha05:32:20  +  00:29:02=35,025 
97 ESPImanol ErvitiESPMovistar Team05:32:20  +  00:29:02=35,025 
98 AUSSimon GerransAUSOrica - GreenEDGE05:32:20  +  00:29:02=35,025 
99 SUIMichael AlbasiniAUSOrica - GreenEDGE05:32:20  +  00:29:02=35,025 
100 AUSSimon ClarkeAUSOrica - GreenEDGE05:32:20  +  00:29:02=35,025 
101 CANDavid VeilleuxFRATeam Europcar05:32:20  +  00:29:02=35,025 
102 ITAEnrico GasparottoKAZAstana Pro Team05:32:20  +  00:29:02=35,025 
103 FRAPierrick FédrigoFRAFDJ.fr05:32:20  +  00:29:02=35,025 
104 FRAAnthony DelaplaceFRASojasun05:32:20  +  00:29:02=35,025 
105 RUSPavel BruttRUSTeam Katusha05:32:20  +  00:29:02=35,025 
106 NEDLars BoomNLDBelkin Pro Cycling05:32:20  +  00:29:02=35,025 
107 NOREdvald Boasson HagenGBRSky Procycling05:32:20  +  00:29:02=35,025 
108 NEDLieuwe WestraNLDVacansoleil - DCM05:32:20  +  00:29:02=35,025 
109 ESPRuben PerezESPEuskaltel - Euskadi05:32:20  +  00:29:02=35,025 
110 FRARomain SicardESPEuskaltel - Euskadi05:32:20  +  00:29:02=35,025 
111 FRAJean-Marc MarinoFRASojasun05:32:20  +  00:29:02=35,025 
112 FRAJulien SimonFRASojasun05:32:20  +  00:29:02=35,025 
113 FRASébastien MinardFRAAg2r La Mondiale05:32:20  +  00:29:02=35,025 
114 ARGJuan Antonio FlechaNLDVacansoleil - DCM05:32:20  +  00:29:02=35,025 
115 GERJohannes FröhlingerNLDArgos–Shimano05:32:20  +  00:29:02=35,025 
116 BELPhilippe GilbertUSABMC Racing Team05:32:20  +  00:29:02=35,025 
117 ITAElia FavilliITALampre-Merida05:32:20  +  00:29:02=35,025 
118 AUSAdam HansenBELLotto-Belisol Team05:32:20  +  00:29:02=35,025 
119 FRAJérémy RoyFRAFDJ.fr05:32:26  +  00:29:08=35,015 
120 SLOKristjan KorenITACannondale Pro Cycling05:32:30  +  00:29:12=35,008 
121 ITAFabio SabatiniITACannondale Pro Cycling05:32:30  +  00:29:12=35,008 
122 ITAManuel QuinziatoUSABMC Racing Team05:32:30  +  00:29:12=35,008 
123 SVKPeter SaganITACannondale Pro Cycling05:32:30  +  00:29:12=35,008 
124 ESPEgoitz GarciaFRACofidis – Solutions Crédits05:32:30  +  00:29:12=35,008 
125 BELMaarten WynantsNLDBelkin Pro Cycling05:32:30  +  00:29:12=35,008 
126 BELSep VanmarckeNLDBelkin Pro Cycling05:32:30  +  00:29:12=35,008 
127 ESPBenjamin NovalDNKTeam Saxo-Tinkoff05:32:30  +  00:29:12=35,008 
128 NEDRoy CurversNLDArgos–Shimano05:32:30  +  00:29:12=35,008 
129 NEDAlbert TimmerNLDArgos–Shimano05:32:30  +  00:29:12=35,008 
130 NZLJack BauerUSAGarmin Sharp05:32:30  +  00:29:12=35,008 
131 BELGert SteegmansBELOmega Pharma – Quick Step05:32:30  +  00:29:12=35,008 
132 ITAAlan MarangoniITACannondale Pro Cycling05:32:30  +  00:29:12=35,008 
133 FRARudy MolardFRACofidis – Solutions Crédits05:32:30  +  00:29:12=35,008 
134 ITAMoreno MoserITACannondale Pro Cycling05:32:30  +  00:29:12=35,008 
135 FRACyril LemoineFRASojasun05:32:30  +  00:29:12=35,008 
136 FRAJonathan HivertFRASojasun05:32:30  +  00:29:12=35,008 
137 FRASamuel DumoulinFRAAg2r La Mondiale05:32:30  +  00:29:12=35,008 
138 KAZAssan BazayevKAZAstana Pro Team05:32:30  +  00:29:12=35,008 
139 KAZAlexey LutsenkoKAZAstana Pro Team05:32:30  +  00:29:12=35,008 
140 FRAKévin RezaFRATeam Europcar05:32:30  +  00:29:12=35,008 
141 FRAJérôme CousinFRATeam Europcar05:32:30  +  00:29:12=35,008 
142 NEDTom LeezerNLDBelkin Pro Cycling05:32:30  +  00:29:12=35,008 
143 JPNYukiya ArashiroFRATeam Europcar05:32:30  +  00:29:12=35,008 
144 FRAYohann GèneFRATeam Europcar05:32:30  +  00:29:12=35,008 
145 ITAMatteo TosattoDNKTeam Saxo-Tinkoff05:32:30  +  00:29:12=35,008 
146 ITAAlessandro De MarchiITACannondale Pro Cycling05:32:30  +  00:29:12=35,008 
147 ESPGorka Izaguirre InsaustiESPEuskaltel - Euskadi05:32:30  +  00:29:12=35,008 
148 FRAWilliam BonnetFRAFDJ.fr05:33:33  +  00:30:15=34,897 
149 BRAMurilo Antonio FischerFRAFDJ.fr05:33:33  +  00:30:15=34,897 
150 POLMaciej BodnarITACannondale Pro Cycling05:33:33  +  00:30:15=34,897 
151 FRAJérôme PineauBELOmega Pharma – Quick Step05:33:33  +  00:30:15=34,897 
152 BELKris BoeckmansNLDVacansoleil - DCM05:33:33  +  00:30:15=34,897 
153 NEDKoen De KortNLDArgos–Shimano05:33:33  +  00:30:15=34,897 
154 FRABlel KadriFRAAg2r La Mondiale05:33:33  +  00:30:15=34,897 
155 NEDDanny van PoppelNLDVacansoleil - DCM05:33:33  +  00:30:15=34,897 
156 NEDBoy van PoppelNLDVacansoleil - DCM05:33:33  +  00:30:15=34,897 
157 GERAndré GreipelBELLotto-Belisol Team05:33:33  +  00:30:15=34,897 
158 AUSBrett LancasterAUSOrica - GreenEDGE05:33:33  +  00:30:15=34,897 
159 AUSStuart O'GradyAUSOrica - GreenEDGE05:33:33  +  00:30:15=34,897 
160 AUSMatthew GossAUSOrica - GreenEDGE05:33:33  +  00:30:15=34,897 
161 ITADaniele BennatiDNKTeam Saxo-Tinkoff05:33:33  +  00:30:15=34,897 
162 GERJohn DegenkolbNLDArgos–Shimano05:33:33  +  00:30:15=34,897 
163 BELFrederik WillemsBELLotto-Belisol Team05:33:33  +  00:30:15=34,897 
164 SUIMichael SchärUSABMC Racing Team05:33:33  +  00:30:15=34,897 
165 GERMarcel KittelNLDArgos–Shimano05:33:33  +  00:30:15=34,897 
166 GERMarcel SiebergBELLotto-Belisol Team05:33:33  +  00:30:15=34,897 
167 NEDTom VeelersNLDArgos–Shimano05:33:33  +  00:30:15=34,897 
168 CANSvein TuftAUSOrica - GreenEDGE05:33:33  +  00:30:15=34,897 
169 ESPJon Izaguirre InsaustiESPEuskaltel - Euskadi05:33:33  +  00:30:15=34,897 
170 ESPJuan LobatoESPEuskaltel - Euskadi05:33:33  +  00:30:15=34,897 
171 ENGIan StannardGBRSky Procycling05:33:33  +  00:30:15=34,897 
172 DENLars BakBELLotto-Belisol Team05:33:33  +  00:30:15=34,897 
173 IOMMark CavendishBELOmega Pharma – Quick Step05:33:33  +  00:30:15=34,897 
174 AUSCameron MeyerAUSOrica - GreenEDGE05:33:33  +  00:30:15=34,897 
175 ITAMatteo TrentinBELOmega Pharma – Quick Step05:33:33  +  00:30:15=34,897 
176 NORAlexander KristoffRUSTeam Katusha05:33:33  +  00:30:15=34,897 
177 DENBrian VandborgITACannondale Pro Cycling05:33:33  +  00:30:15=34,897 
178 NZLGregory HendersonBELLotto-Belisol Team05:33:33  +  00:30:15=34,897 
179 BELJürgen RoelandtsBELLotto-Belisol Team05:33:33  +  00:30:15=34,897 
180 WALGeraint ThomasGBRSky Procycling05:33:33  +  00:30:15=34,897 
181 URSRamunas NavardauskasUSAGarmin Sharp05:33:33  +  00:30:15=34,897 
182 KAZDmitriy MuravyevKAZAstana Pro Team05:33:33  +  00:30:15=34,897 
183 NEDNiki TerpstraBELOmega Pharma – Quick Step05:33:33  +  00:30:15=34,897 
184 ITADavide CimolaiITALampre-Merida05:33:33  +  00:30:15=34,897 
185 FRABrice FeilluFRASojasun05:33:55  +  00:30:37=34,859 
186 ITARoberto FerrariITALampre-Merida05:33:55  +  00:30:37=34,859 
187 AUSRohan DennisUSAGarmin Sharp05:42:03  +  00:38:45=34,030 

Withdrawls: 1
 
Rider
Team
Reason
142  ITAMatteo BonoITALampre-MeridaDid not finish

Todays birthdays.

1870  Hippolyte Pagie
1884  Henri Devroye
1886  Ernest Ricaux
1896  Andre Zonnequin
1897  Jean Kienlen
1903  Robert Brugére
1930  Fred De Bruyne
1930  Jean-Claude Grèt
1932  Vito Favero
1932  Norbert Kerckhove
1946  Ronald De Witte
1967  Johan Verstrepen
1969  Orlando Sergio Gomes